| time (UTC) | temp F | wind direction | speed MPH | gust MPH | rain 1hr in | rain 24hr in | rain mn in | humidity % | barometer mb |
| 20260507003148 | 59 | 315 | 4.0 | 5.0 | 0.00 | 0.17 | 0.17 | 77 | 1016.7 |
| 20260507002123 | 59 | 0 | 6.0 | 7.0 | 0.00 | 0.17 | 0.17 | 77 | 1016.6 |
| 20260507001147 | 59 | 293 | 4.0 | 7.0 | 0.00 | 0.17 | 0.17 | 76 | 1016.7 |
| 20260507000123 | 59 | 23 | 6.0 | 8.0 | 0.00 | 0.17 | 0.17 | 77 | 1016.2 |
| 20260506235148 | 59 | 338 | 5.0 | 6.0 | 0.00 | 0.17 | 0.17 | 77 | 1016.5 |
| 20260506234123 | 59 | 90 | 6.0 | 9.0 | 0.00 | 0.17 | 0.17 | 76 | 1016.0 |
| 20260506233148 | 59 | 45 | 6.0 | 8.0 | 0.00 | 0.17 | 0.17 | 76 | 1016.1 |
| 20260506232123 | 59 | 315 | 5.0 | 5.0 | 0.00 | 0.17 | 0.17 | 76 | 1016.0 |
| 20260506231208 | 59 | 45 | 6.0 | 7.0 | 0.00 | 0.17 | 0.17 | 75 | 1016.2 |
| 20260506230123 | 59 | 0 | 5.0 | 7.0 | 0.00 | 0.17 | 0.17 | 74 | 1016.4 |
| 20260506225147 | 59 | 45 | 4.0 | 5.0 | 0.00 | 0.17 | 0.17 | 75 | 1016.2 |
| 20260506224123 | 59 | 0 | 4.0 | 5.0 | 0.00 | 0.17 | 0.17 | 75 | 1016.3 |
| 20260506223147 | 59 | 0 | 3.0 | 5.0 | 0.00 | 0.17 | 0.17 | 75 | 1016.1 |
| 20260506222123 | 59 | 0 | 5.0 | 6.0 | 0.00 | 0.17 | 0.17 | 74 | 1016.3 |
| 20260506221148 | 59 | 0 | 5.0 | 7.0 | 0.00 | 0.17 | 0.17 | 73 | 1015.8 |
| 20260506220124 | 59 | 23 | 6.0 | 9.0 | 0.00 | 0.17 | 0.17 | 73 | 1015.9 |
| 20260506215147 | 59 | 45 | 5.0 | 7.0 | 0.00 | 0.17 | 0.17 | 73 | 1015.7 |
| 20260506214124 | 59 | 338 | 4.0 | 6.0 | 0.00 | 0.17 | 0.17 | 73 | 1016.1 |
| 20260506213147 | 59 | 0 | 5.0 | 7.0 | 0.00 | 0.17 | 0.17 | 74 | 1016.0 |
| 20260506212123 | 58 | 90 | 4.0 | 5.0 | 0.00 | 0.17 | 0.17 | 74 | 1015.9 |
| 20260506211147 | 59 | 0 | 5.0 | 7.0 | 0.00 | 0.17 | 0.17 | 73 | 1016.1 |
| 20260506210124 | 59 | 45 | 5.0 | 7.0 | 0.00 | 0.17 | 0.17 | 73 | 1016.0 |
| 20260506205147 | 59 | 45 | 3.0 | 4.0 | 0.00 | 0.17 | 0.17 | 74 | 1016.1 |
| 20260506204124 | 58 | 0 | 5.0 | 7.0 | 0.00 | 0.17 | 0.17 | 73 | 1016.3 |
| 20260506203147 | 58 | 45 | 3.0 | 5.0 | 0.00 | 0.17 | 0.17 | 73 | 1016.7 |
| 20260506202143 | 58 | 225 | 3.0 | 5.0 | 0.00 | 0.17 | 0.17 | 73 | 1016.5 |
| 20260506201147 | 58 | 0 | 3.0 | 5.0 | 0.00 | 0.17 | 0.17 | 73 | 1016.4 |
| 20260506200124 | 58 | 0 | 5.0 | 7.0 | 0.00 | 0.17 | 0.17 | 76 | 1016.5 |
| 20260506195147 | 57 | 338 | 3.0 | 4.0 | 0.00 | 0.17 | 0.17 | 75 | 1016.6 |
| 20260506194123 | 57 | 0 | 3.0 | 4.0 | 0.00 | 0.17 | 0.17 | 76 | 1016.8 |
| 20260506193147 | 57 | 0 | 3.0 | 5.0 | 0.00 | 0.17 | 0.17 | 77 | 1016.7 |
| 20260506192123 | 57 | 45 | 1.0 | 2.0 | 0.00 | 0.17 | 0.17 | 77 | 1016.9 |
| 20260506191147 | 57 | 338 | 3.0 | 5.0 | 0.00 | 0.17 | 0.17 | 77 | 1017.1 |
| 20260506190123 | 57 | 0 | 3.0 | 5.0 | 0.00 | 0.17 | 0.17 | 79 | 1016.8 |
| 20260506185147 | 56 | 0 | 5.0 | 6.0 | 0.00 | 0.17 | 0.17 | 80 | 1016.3 |
| 20260506184123 | 56 | 0 | 7.0 | 10.0 | 0.00 | 0.17 | 0.17 | 80 | 1015.8 |
| 20260506183148 | 56 | 0 | 6.0 | 9.0 | 0.00 | 0.17 | 0.17 | 80 | 1015.7 |
| 20260506182123 | 56 | 45 | 7.0 | 9.0 | 0.00 | 0.17 | 0.17 | 81 | 1015.4 |
| 20260506181147 | 55 | 0 | 5.0 | 7.0 | 0.00 | 0.17 | 0.17 | 82 | 1015.5 |
| 20260506180124 | 55 | 45 | 6.0 | 8.0 | 0.00 | 0.17 | 0.17 | 83 | 1016.0 |
| 20260506175207 | 54 | 0 | 3.0 | 3.0 | 0.00 | 0.17 | 0.17 | 87 | 1016.0 |
| 20260506174124 | 54 | 23 | 6.0 | 9.0 | 0.00 | 0.17 | 0.17 | 88 | 1016.1 |
| 20260506173147 | 54 | 0 | 6.0 | 7.0 | 0.00 | 0.17 | 0.17 | 88 | 1016.5 |
| 20260506172124 | 53 | 315 | 5.0 | 9.0 | 0.00 | 0.17 | 0.17 | 89 | 1016.5 |
| 20260506171148 | 53 | 315 | 7.0 | 9.0 | 0.00 | 0.17 | 0.17 | 88 | 1016.5 |
| 20260506170123 | 54 | 45 | 5.0 | 7.0 | 0.01 | 0.17 | 0.17 | 89 | 1016.8 |
| 20260506165147 | 54 | 0 | 7.0 | 10.0 | 0.05 | 0.17 | 0.17 | 89 | 1017.0 |
| 20260506164123 | 54 | 45 | 5.0 | 7.0 | 0.17 | 0.17 | 0.17 | 90 | 1017.3 |
| 20260506163147 | 54 | 0 | 2.0 | 3.0 | 0.17 | 0.17 | 0.17 | 91 | 1017.5 |
| 20260506162204 | 53 | 0 | 3.0 | 5.0 | 0.17 | 0.17 | 0.17 | 92 | 1017.2 |
| 20260506161148 | 52 | 45 | 5.0 | 7.0 | 0.17 | 0.17 | 0.17 | 90 | 1016.0 |
| 20260506160123 | 52 | 0 | 7.0 | 9.0 | 0.15 | 0.15 | 0.15 | 89 | 1015.7 |
| 20260506155147 | 53 | 45 | 4.0 | 5.0 | 0.12 | 0.12 | 0.12 | 83 | 1017.7 |
| 20260506154123 | 53 | 338 | 1.0 | 3.0 | 0.00 | 0.00 | 0.00 | 80 | 1018.6 |
| 20260506153147 | 54 | 45 | 3.0 | 4.0 | 0.00 | 0.00 | 0.00 | 78 | 1017.9 |
| 20260506152144 | 54 | 0 | 5.0 | 7.0 | 0.00 | 0.00 | 0.00 | 78 | 1016.8 |
| 20260506151308 | 54 | 315 | 9.0 | 12.0 | 0.00 | 0.00 | 0.00 | 79 | 1015.7 |
| 20260506150123 | 54 | 225 | 5.0 | 7.0 | 0.00 | 0.00 | 0.00 | 79 | 1017.0 |
| 20260506145147 | 53 | 0 | 5.0 | 7.0 | 0.00 | 0.00 | 0.00 | 80 | 1016.9 |
| 20260506144123 | 53 | 0 | 6.0 | 9.0 | 0.00 | 0.00 | 0.00 | 80 | 1017.1 |
| 20260506143147 | 53 | 315 | 5.0 | 7.0 | 0.00 | 0.00 | 0.00 | 80 | 1016.5 |
| 20260506142123 | 53 | 23 | 6.0 | 7.0 | 0.00 | 0.00 | 0.00 | 80 | 1016.5 |
| 20260506141147 | 53 | 338 | 8.0 | 9.0 | 0.00 | 0.00 | 0.00 | 80 | 1016.2 |
| 20260506140123 | 53 | 338 | 3.0 | 5.0 | 0.00 | 0.00 | 0.00 | 80 | 1016.2 |
| 20260506135147 | 53 | 45 | 4.0 | 5.0 | 0.00 | 0.00 | 0.00 | 80 | 1015.9 |
| 20260506134123 | 53 | 0 | 8.0 | 11.0 | 0.00 | 0.00 | 0.00 | 80 | 1015.8 |
| 20260506133147 | 53 | 315 | 6.0 | 8.0 | 0.00 | 0.00 | 0.00 | 80 | 1015.8 |
| 20260506132124 | 53 | 270 | 4.0 | 5.0 | 0.00 | 0.00 | 0.00 | 81 | 1015.5 |
| 20260506131207 | 53 | 0 | 5.0 | 7.0 | 0.00 | 0.00 | 0.00 | 82 | 1015.9 |
| 20260506130123 | 53 | 0 | 6.0 | 7.0 | 0.00 | 0.00 | 0.00 | 83 | 1015.7 |
| 20260506125148 | 53 | 315 | 6.0 | 7.0 | 0.00 | 0.00 | 0.00 | 83 | 1015.6 |
| 20260506124123 | 53 | 0 | 5.0 | 7.0 | 0.00 | 0.00 | 0.00 | 83 | 1015.2 |
| 20260506123147 | 53 | 0 | 7.0 | 10.0 | 0.00 | 0.00 | 0.00 | 83 | 1015.5 |
| 20260506122123 | 53 | 0 | 9.0 | 10.0 | 0.00 | 0.00 | 0.00 | 83 | 1015.1 |
| 20260506121228 | 53 | 0 | 7.0 | 10.0 | 0.00 | 0.00 | 0.00 | 82 | 1015.2 |
| 20260506120123 | 53 | 0 | 6.0 | 9.0 | 0.00 | 0.00 | 0.00 | 80 | 1014.8 |
| 20260506115147 | 53 | 338 | 3.0 | 7.0 | 0.00 | 0.00 | 0.00 | 80 | 1014.8 |
| 20260506114124 | 53 | 0 | 4.0 | 5.0 | 0.00 | 0.00 | 0.00 | 79 | 1014.4 |
| 20260506113208 | 54 | 0 | 7.0 | 11.0 | 0.00 | 0.00 | 0.00 | 78 | 1014.5 |
| 20260506112123 | 54 | 0 | 5.0 | 9.0 | 0.00 | 0.00 | 0.00 | 76 | 1014.2 |
| 20260506111147 | 54 | 0 | 6.0 | 8.0 | 0.00 | 0.00 | 0.00 | 74 | 1014.0 |
| 20260506110123 | 55 | 0 | 4.0 | 7.0 | 0.00 | 0.00 | 0.00 | 71 | 1014.1 |
| 20260506105147 | 55 | 45 | 2.0 | 4.0 | 0.00 | 0.00 | 0.00 | 71 | 1013.8 |
| 20260506104123 | 55 | 45 | 6.0 | 9.0 | 0.00 | 0.00 | 0.00 | 71 | 1013.6 |
| 20260506103147 | 55 | 315 | 6.0 | 8.0 | 0.00 | 0.00 | 0.00 | 70 | 1013.4 |
| 20260506102123 | 55 | 0 | 4.0 | 6.0 | 0.00 | 0.00 | 0.00 | 70 | 1013.3 |
| 20260506101147 | 55 | 0 | 7.0 | 9.0 | 0.00 | 0.00 | 0.00 | 70 | 1012.8 |
| 20260506100123 | 56 | 0 | 3.0 | 5.0 | 0.00 | 0.00 | 0.00 | 70 | 1013.1 |
| 20260506095147 | 56 | 0 | 2.0 | 3.0 | 0.00 | 0.00 | 0.00 | 70 | 1013.0 |
| 20260506094123 | 56 | 0 | 3.0 | 3.0 | 0.00 | 0.00 | 0.00 | 70 | 1012.8 |
| 20260506093147 | 56 | 0 | 4.0 | 7.0 | 0.00 | 0.00 | 0.00 | 70 | 1012.8 |
| 20260506092124 | 56 | 315 | 6.0 | 8.0 | 0.00 | 0.00 | 0.00 | 70 | 1012.7 |
| 20260506091147 | 56 | 23 | 4.0 | 5.0 | 0.00 | 0.00 | 0.00 | 70 | 1012.6 |
| 20260506090123 | 56 | 0 | 4.0 | 7.0 | 0.00 | 0.00 | 0.00 | 70 | 1012.4 |
| 20260506085147 | 56 | 0 | 3.0 | 4.0 | 0.00 | 0.00 | 0.00 | 70 | 1012.4 |
| 20260506084123 | 56 | 0 | 3.0 | 3.0 | 0.00 | 0.00 | 0.00 | 71 | 1012.3 |
| 20260506083147 | 56 | 315 | 4.0 | 5.0 | 0.00 | 0.00 | 0.00 | 71 | 1012.4 |
| 20260506082123 | 56 | 0 | 3.0 | 4.0 | 0.00 | 0.00 | 0.00 | 71 | 1012.2 |
| 20260506081147 | 56 | 0 | 3.0 | 4.0 | 0.00 | 0.00 | 0.00 | 71 | 1012.1 |
| 20260506080123 | 57 | 23 | 3.0 | 3.0 | 0.00 | 0.00 | 0.00 | 71 | 1012.2 |
| 20260506073208 | 57 | 90 | 3.0 | 4.0 | 0.00 | 0.00 | 0.00 | 71 | 1012.2 |
| 20260506072124 | 57 | 0 | 5.0 | 6.0 | 0.00 | 0.00 | 0.00 | 71 | 1012.2 |
| 20260506071147 | 58 | 248 | 4.0 | 7.0 | 0.00 | 0.00 | 0.00 | 71 | 1012.2 |
| 20260506070123 | 58 | 270 | 4.0 | 5.0 | 0.00 | 0.00 | 0.00 | 72 | 1012.2 |
| 20260506062124 | 59 | 0 | 7.0 | 8.0 | 0.00 | 0.00 | 0.00 | 73 | 1012.1 |
| 20260506061147 | 59 | 180 | 5.0 | 7.0 | 0.00 | 0.00 | 0.00 | 72 | 1012.1 |
| 20260506060123 | 59 | 0 | 7.0 | 11.0 | 0.00 | 0.00 | 0.00 | 73 | 1011.9 |
| 20260506050614 | 61 | 0 | 4.0 | 5.0 | 0.00 | 0.00 | 0.00 | 75 | 1011.7 |
| 20260506044613 | 62 | 0 | 5.0 | 11.0 | 0.00 | 0.00 | 0.00 | 75 | 1011.7 |
| 20260506043637 | 62 | 90 | 5.0 | 7.0 | 0.00 | 0.00 | 0.00 | 75 | 1011.7 |
| 20260506042613 | 62 | 293 | 5.0 | 7.0 | 0.00 | 0.00 | 0.00 | 75 | 1011.8 |
| 20260506041637 | 63 | 45 | 2.0 | 4.0 | 0.00 | 0.00 | 0.00 | 75 | 1011.6 |
| 20260506040613 | 63 | 0 | 5.0 | 7.0 | 0.00 | 0.00 | 0.00 | 75 | 1011.3 |
| 20260506035637 | 64 | 315 | 1.0 | 2.0 | 0.00 | 0.00 | 0.00 | 72 | 1011.3 |
| 20260506034613 | 65 | 0 | 5.0 | 8.0 | 0.00 | 0.00 | 0.00 | 72 | 1011.1 |
| 20260506033637 | 65 | 0 | 3.0 | 5.0 | 0.00 | 0.00 | 0.00 | 71 | 1011.0 |
| 20260506032613 | 66 | 0 | 3.0 | 5.0 | 0.00 | 0.00 | 0.00 | 71 | 1010.9 |
| 20260506031637 | 67 | 0 | 7.0 | 9.0 | 0.00 | 0.00 | 0.00 | 71 | 1010.7 |
| 20260506030613 | 68 | 0 | 5.0 | 7.0 | 0.00 | 0.00 | 0.00 | 71 | 1010.6 |
| 20260506025657 | 68 | 0 | 6.0 | 9.0 | 0.00 | 0.00 | 0.00 | 71 | 1010.5 |
| 20260506024613 | 68 | 0 | 5.0 | 7.0 | 0.00 | 0.00 | 0.00 | 70 | 1010.0 |
| 20260506023637 | 69 | 0 | 5.0 | 6.0 | 0.00 | 0.00 | 0.00 | 70 | 1009.7 |
| 20260506022613 | 69 | 0 | 5.0 | 8.0 | 0.00 | 0.00 | 0.00 | 71 | 1009.6 |
| 20260506021657 | 70 | 315 | 5.0 | 7.0 | 0.00 | 0.00 | 0.00 | 71 | 1009.2 |
| 20260506020613 | 71 | 0 | 2.0 | 3.0 | 0.00 | 0.00 | 0.00 | 70 | 1009.0 |
| 20260506015657 | 72 | 0 | 2.0 | 7.0 | 0.00 | 0.00 | 0.00 | 71 | 1008.9 |
| 20260506014613 | 72 | 0 | 6.0 | 8.0 | 0.00 | 0.00 | 0.00 | 70 | 1008.8 |
| 20260506013637 | 72 | 90 | 1.0 | 1.0 | 0.00 | 0.00 | 0.00 | 70 | 1008.6 |
| 20260506012613 | 73 | 315 | 4.0 | 5.0 | 0.00 | 0.00 | 0.00 | 66 | 1008.7 |
| 20260506011637 | 73 | 270 | 3.0 | 4.0 | 0.00 | 0.00 | 0.00 | 65 | 1008.3 |
| 20260506010634 | 73 | 315 | 5.0 | 7.0 | 0.00 | 0.00 | 0.00 | 64 | 1008.1 |
| 20260506005637 | 73 | 180 | 3.0 | 4.0 | 0.00 | 0.00 | 0.00 | 63 | 1008.0 |
| 20260506004614 | 74 | 45 | 2.0 | 3.0 | 0.00 | 0.00 | 0.00 | 62 | 1008.0 |